This is the latest recevied weather packets stored in our database for station/object K1BWE-1. If no packets are shown the sender has not sent any weather packets the latest 10 day(s).
| Time | Temp. | Humidity | Pressure | Rain* | Wind** | Luminosity | Snow |
|---|---|---|---|---|---|---|---|
| 1777490851 | 27.22° C | 15% | 1017 hPa | 0 mm | - | 757 W/m² | - |
| 1777490548 | 27.22° C | 14% | 1016.8 hPa | 0 mm | - | 788 W/m² | - |
| 1777490244 | 27.22° C | 14% | 1017.1 hPa | 0 mm | - | 780 W/m² | - |
| 1777489942 | 26.11° C | 15% | 1017 hPa | 0 mm | - | 783 W/m² | - |
| 1777489033 | 26.67° C | 15% | 1017.4 hPa | 0 mm | - | 749 W/m² | - |
| 1777488427 | 26.11° C | 16% | 1017.6 hPa | 0 mm | - | 743 W/m² | - |
| 1777487823 | 25.56° C | 17% | 1017.4 hPa | 0 mm | - | 760 W/m² | - |
| 1777486610 | 25.56° C | 19% | 1017.7 hPa | 0 mm | - | 785 W/m² | - |
| 1777486308 | 25.56° C | 19% | 1017.7 hPa | 0 mm | - | 644 W/m² | - |
| 1777484185 | 25° C | 16% | 1017.9 hPa | 0 mm | - | 548 W/m² | - |
| 1777483577 | 25° C | 16% | 1018.2 hPa | 0 mm | - | 588 W/m² | - |
| 1777483277 | 25° C | 17% | 1017.9 hPa | 0 mm | - | 505 W/m² | - |
| 1777480245 | 23.33° C | 21% | 1017.7 hPa | 0 mm | - | 732 W/m² | - |
| 1777479941 | 23.33° C | 18% | 1017.9 hPa | 0 mm | - | 691 W/m² | - |
| 1777478729 | 23.89° C | 19% | 1018.3 hPa | 0 mm | - | 661 W/m² | - |
| 1777478122 | 23.89° C | 21% | 1018.1 hPa | 0 mm | - | 437 W/m² | - |
| 1777477819 | 22.22° C | 20% | 1018.1 hPa | 0 mm | - | 538 W/m² | - |
| 1777476606 | 21.67° C | 22% | 1017.9 hPa | 0 mm | - | 337 W/m² | - |
| 1777476302 | 22.78° C | 30% | 1018.3 hPa | 0 mm | - | 234 W/m² | - |
| 1777475997 | 21.67° C | 30% | 1018.1 hPa | 0 mm | - | 313 W/m² | - |
| 1777473873 | 15.56° C | 29% | 1018.3 hPa | 0 mm | - | 170 W/m² | - |
| 1777473570 | 15° C | 31% | 1017.9 hPa | 0 mm | - | 110 W/m² | - |
| 1777472658 | 15° C | 32% | 1018.1 hPa | 0 mm | - | 79 W/m² | - |
| 1777472354 | 14.44° C | 31% | 1018.1 hPa | 0 mm | - | 69 W/m² | - |
| 1777471140 | 13.89° C | 31% | 1017.8 hPa | 0 mm | - | 56 W/m² | - |
* Rain latest hour (hover to see other rain measurements)
** Current wind speed in m/s (hover to see current wind gust speed)